AGILE (31135 NORAD) Tracking and Keplerian Element Data

This shows tracking and keplerian element data for the satellite.

Feedback or suggestion? Click here.




ElementValue
Catalog31135
NameAGILE
Epoch Orbit64682
Epoch Day344.66906909
Epoch Year2018
RAAN207.4409
Inclination2.4669
Eccentricity0.001216
Argument of Perigee157.7282
Mean Anonmoly202.33
Mean Motion15.31205966
Decay Rate2.333E-05
L11 31135U 07013A 18344.66906909 .00002333 00000-0 38502-4 0 9992
L22 31135 2.4669 207.4409 0012160 157.7282 202.3300 15.31205966646824

Live tracking and technical data element details for AGILE (NORAD 31135). AGILE can be tracked NOW for your location showing map with azimuth and elevation plus other details from your city location.

Track the satellite on the map from your city or location and see movement details for azimuth, elevation, latitude, longitude, range, height, and movement on the map or in text.







IsCatalogInMostPopularTable: catalog: 31135, numindb: 45
Update: records affected: 1



GetName: 31135 AGILE

Hit Count: updated at: Thu, 13 Dec 2018 05:12:55 GMT